Time,TemperatureF,DewpointF,PressureIn,WindDirection,WindDirectionDegrees,WindSpeedMPH,WindSpeedGustMPH,Humidity,HourlyPrecipIn,Conditions,Clouds,dailyrainin,SoftwareType,DateUTC
2013-02-10 00:01:00,39.0,36.0,29.97,ENE,74,1.0,-999.0,88,-99.99,,,-99.99,,2013-02-10 06:01:00,
2013-02-10 00:11:00,39.0,36.0,29.97,ENE,74,1.0,-999.0,88,-99.99,,,-99.99,,2013-02-10 06:11:00,
2013-02-10 00:21:00,39.0,36.0,29.96,East,94,1.0,-999.0,89,-99.99,,,-99.99,,2013-02-10 06:21:00,
2013-02-10 00:32:00,39.0,36.0,29.96,East,92,1.0,-999.0,88,-99.99,,,-99.99,,2013-02-10 06:32:00,
2013-02-10 00:42:00,39.0,36.0,29.96,East,92,1.0,-999.0,88,-99.99,,,-99.99,,2013-02-10 06:42:00,
2013-02-10 00:51:00,39.0,36.0,29.95,ENE,66,1.0,-999.0,89,-99.99,,,-99.99,,2013-02-10 06:51:00,
2013-02-10 01:01:00,39.0,36.0,29.95,East,81,0.0,-999.0,90,-99.99,,,-99.99,,2013-02-10 07:01:00,
2013-02-10 01:11:00,39.0,36.0,29.95,East,81,0.0,-999.0,90,-99.99,,,-99.99,,2013-02-10 07:11:00,
2013-02-10 01:21:00,39.0,36.0,29.93,ENE,67,1.0,-999.0,90,-99.99,,,-99.99,,2013-02-10 07:21:00,
2013-02-10 01:31:00,39.0,36.0,29.91,NE,52,2.0,-999.0,90,-99.99,,,-99.99,,2013-02-10 07:31:00,
2013-02-10 01:41:00,39.0,36.0,29.91,NE,52,2.0,-999.0,90,-99.99,,,-99.99,,2013-02-10 07:41:00,
2013-02-10 01:51:00,40.0,37.0,29.91,ENE,62,2.0,-999.0,90,-99.99,,,-99.99,,2013-02-10 07:51:00,
2013-02-10 02:01:00,40.0,37.0,29.90,ENE,75,1.0,-999.0,90,-99.99,,,-99.99,,2013-02-10 08:01:00,
2013-02-10 02:11:00,40.0,37.0,29.90,ENE,75,1.0,-999.0,90,-99.99,,,-99.99,,2013-02-10 08:11:00,
2013-02-10 02:21:00,40.0,37.0,29.88,ENE,78,1.0,-999.0,90,-99.99,,,-99.99,,2013-02-10 08:21:00,
2013-02-10 02:32:00,40.0,37.0,29.87,East,95,1.0,-999.0,89,-99.99,,,-99.99,,2013-02-10 08:32:00,
2013-02-10 02:43:00,40.0,37.0,29.87,East,95,1.0,-999.0,89,-99.99,,,-99.99,,2013-02-10 08:43:00,
2013-02-10 02:52:00,40.0,37.0,29.85,East,96,2.0,-999.0,89,-99.99,,,-99.99,,2013-02-10 08:52:00,
2013-02-10 03:02:00,41.0,38.0,29.84,ESE,108,1.0,-999.0,88,-99.99,,,-99.99,,2013-02-10 09:02:00,
2013-02-10 03:11:00,41.0,38.0,29.84,ESE,108,1.0,-999.0,88,-99.99,,,-99.99,,2013-02-10 09:11:00,
2013-02-10 03:21:00,41.0,38.0,29.83,East,88,1.0,-999.0,88,-99.99,,,-99.99,,2013-02-10 09:21:00,
2013-02-10 03:32:00,41.0,38.0,29.82,ENE,76,2.0,-999.0,88,-99.99,,,-99.99,,2013-02-10 09:32:00,
2013-02-10 03:41:00,41.0,38.0,29.82,ENE,76,2.0,-999.0,88,-99.99,,,-99.99,,2013-02-10 09:41:00,
2013-02-10 03:51:00,41.0,38.0,29.80,East,97,1.0,-999.0,88,-99.99,,,-99.99,,2013-02-10 09:51:00,
2013-02-10 04:01:00,41.0,38.0,29.78,East,89,2.0,-999.0,89,-99.99,,,-99.99,,2013-02-10 10:01:00,
2013-02-10 04:11:00,41.0,38.0,29.77,East,82,2.0,-999.0,89,-99.99,,,-99.99,,2013-02-10 10:11:00,
2013-02-10 04:21:00,41.0,38.0,29.77,East,82,2.0,-999.0,89,-99.99,,,-99.99,,2013-02-10 10:21:00,
2013-02-10 04:31:00,42.0,39.0,29.75,ENE,74,2.0,-999.0,90,-99.99,,,-99.99,,2013-02-10 10:31:00,
2013-02-10 04:42:00,42.0,39.0,29.75,ENE,74,2.0,-999.0,90,-99.99,,,-99.99,,2013-02-10 10:42:00,
2013-02-10 04:51:00,43.0,40.0,29.74,East,84,2.0,-999.0,90,-99.99,,,-99.99,,2013-02-10 10:51:00,
2013-02-10 05:01:00,43.0,40.0,29.75,ENE,65,2.0,-999.0,89,-99.99,,,-99.99,,2013-02-10 11:01:00,
2013-02-10 05:11:00,43.0,40.0,29.75,ENE,65,2.0,-999.0,89,-99.99,,,-99.99,,2013-02-10 11:11:00,
2013-02-10 05:21:00,44.0,41.0,29.74,ENE,68,0.0,-999.0,90,-99.99,,,-99.99,,2013-02-10 11:21:00,
2013-02-10 05:32:00,44.0,41.0,29.76,ENE,62,0.0,-999.0,89,-99.99,,,-99.99,,2013-02-10 11:32:00,
2013-02-10 05:42:00,44.0,41.0,29.76,ENE,62,0.0,-999.0,89,-99.99,,,-99.99,,2013-02-10 11:42:00,
2013-02-10 05:52:00,44.0,41.0,29.76,ENE,62,0.0,-999.0,90,-99.99,,,-99.99,,2013-02-10 11:52:00,
2013-02-10 06:01:00,44.0,41.0,29.76,ENE,59,0.0,-999.0,90,-99.99,,,-99.99,,2013-02-10 12:01:00,
2013-02-10 06:12:00,44.0,41.0,29.76,ENE,59,0.0,-999.0,90,-99.99,,,-99.99,,2013-02-10 12:12:00,
2013-02-10 06:21:00,44.0,42.0,29.76,ENE,59,1.0,-999.0,91,-99.99,,,-99.99,,2013-02-10 12:21:00,
2013-02-10 06:32:00,44.0,42.0,29.77,WSW,250,0.0,-999.0,92,-99.99,,,-99.99,,2013-02-10 12:32:00,
2013-02-10 06:42:00,44.0,42.0,29.77,WSW,250,0.0,-999.0,92,-99.99,,,-99.99,,2013-02-10 12:42:00,
2013-02-10 06:52:00,44.0,42.0,29.77,NW,324,2.0,-999.0,92,-99.99,,,-99.99,,2013-02-10 12:52:00,
2013-02-10 07:02:00,44.0,42.0,29.78,WNW,283,0.0,-999.0,93,-99.99,,,-99.99,,2013-02-10 13:02:00,
2013-02-10 07:11:00,44.0,42.0,29.78,WNW,283,0.0,-999.0,93,-99.99,,,-99.99,,2013-02-10 13:11:00,
2013-02-10 07:21:00,44.0,42.0,29.80,West,259,1.0,-999.0,93,-99.99,,,-99.99,,2013-02-10 13:21:00,
2013-02-10 07:31:00,44.0,42.0,29.79,WSW,245,0.0,-999.0,93,-99.99,,,-99.99,,2013-02-10 13:31:00,
2013-02-10 07:41:00,44.0,42.0,29.79,WSW,245,0.0,-999.0,93,-99.99,,,-99.99,,2013-02-10 13:41:00,
2013-02-10 07:51:00,45.0,43.0,29.77,WSW,245,0.0,-999.0,93,-99.99,,,-99.99,,2013-02-10 13:51:00,
2013-02-10 08:02:00,45.0,43.0,29.77,WSW,245,0.0,-999.0,93,-99.99,,,-99.99,,2013-02-10 14:02:00,
2013-02-10 08:11:00,45.0,43.0,29.77,WSW,245,0.0,-999.0,93,-99.99,,,-99.99,,2013-02-10 14:11:00,
2013-02-10 08:21:00,45.0,43.0,29.72,ENE,64,2.0,-999.0,94,-99.99,,,-99.99,,2013-02-10 14:21:00,
2013-02-10 08:32:00,46.0,44.0,29.70,East,84,2.0,-999.0,94,-99.99,,,-99.99,,2013-02-10 14:32:00,
2013-02-10 08:41:00,46.0,44.0,29.70,East,84,2.0,-999.0,94,-99.99,,,-99.99,,2013-02-10 14:41:00,
2013-02-10 08:52:00,46.0,44.0,29.71,WNW,301,3.0,-999.0,94,-99.99,,,-99.99,,2013-02-10 14:52:00,
2013-02-10 09:02:00,47.0,45.0,29.72,WNW,303,0.0,-999.0,94,-99.99,,,-99.99,,2013-02-10 15:02:00,
2013-02-10 09:11:00,47.0,45.0,29.72,WNW,303,0.0,-999.0,94,-99.99,,,-99.99,,2013-02-10 15:11:00,
2013-02-10 09:21:00,47.0,45.0,29.72,NW,312,0.0,-999.0,94,-99.99,,,-99.99,,2013-02-10 15:21:00,
2013-02-10 09:32:00,47.0,45.0,29.71,NW,312,0.0,-999.0,94,-99.99,,,-99.99,,2013-02-10 15:32:00,
2013-02-10 09:42:00,47.0,45.0,29.71,NW,312,0.0,-999.0,94,-99.99,,,-99.99,,2013-02-10 15:42:00,
2013-02-10 09:52:00,48.0,46.0,29.71,NNW,335,0.0,-999.0,94,-99.99,,,-99.99,,2013-02-10 15:52:00,
2013-02-10 10:02:00,48.0,46.0,29.70,ESE,109,0.0,-999.0,94,-99.99,,,-99.99,,2013-02-10 16:02:00,
2013-02-10 10:11:00,49.0,47.0,29.70,ESE,109,0.0,-999.0,94,-99.99,,,-99.99,,2013-02-10 16:11:00,
2013-02-10 10:22:00,49.0,47.0,29.70,ESE,109,0.0,-999.0,94,-99.99,,,-99.99,,2013-02-10 16:22:00,
2013-02-10 10:32:00,50.0,49.0,29.70,NE,54,0.0,-999.0,95,-99.99,,,-99.99,,2013-02-10 16:32:00,
2013-02-10 10:42:00,53.0,52.0,29.70,ENE,70,1.0,-999.0,95,-99.99,,,-99.99,,2013-02-10 16:42:00,
2013-02-10 10:52:00,53.0,52.0,29.70,ENE,70,1.0,-999.0,95,-99.99,,,-99.99,,2013-02-10 16:52:00,
2013-02-10 11:01:00,55.0,53.0,29.69,NE,49,2.0,-999.0,94,-99.99,,,-99.99,,2013-02-10 17:01:00,
2013-02-10 11:11:00,55.0,53.0,29.69,NE,49,2.0,-999.0,94,-99.99,,,-99.99,,2013-02-10 17:11:00,
2013-02-10 11:21:00,56.0,53.0,29.68,ENE,77,2.0,-999.0,91,-99.99,,,-99.99,,2013-02-10 17:21:00,
2013-02-10 11:32:00,57.0,54.0,29.67,East,91,1.0,-999.0,90,-99.99,,,-99.99,,2013-02-10 17:32:00,
2013-02-10 11:42:00,59.0,55.0,29.66,East,92,1.0,-999.0,87,-99.99,,,-99.99,,2013-02-10 17:42:00,
2013-02-10 11:52:00,59.0,55.0,29.66,East,92,1.0,-999.0,87,-99.99,,,-99.99,,2013-02-10 17:52:00,
2013-02-10 12:02:00,60.0,55.0,29.65,SW,217,1.0,-999.0,84,-99.99,,,-99.99,,2013-02-10 18:02:00,
2013-02-10 12:12:00,62.0,56.0,29.64,SSW,192,2.0,-999.0,80,-99.99,,,-99.99,,2013-02-10 18:12:00,
2013-02-10 12:22:00,62.0,56.0,29.64,SSW,192,2.0,-999.0,80,-99.99,,,-99.99,,2013-02-10 18:22:00,
2013-02-10 12:32:00,64.0,56.0,29.62,WSW,258,4.0,-999.0,74,-99.99,,,-99.99,,2013-02-10 18:32:00,
2013-02-10 12:42:00,64.0,56.0,29.62,WSW,258,4.0,-999.0,74,-99.99,,,-99.99,,2013-02-10 18:42:00,
2013-02-10 12:52:00,65.0,55.0,29.61,WSW,244,3.0,-999.0,69,-99.99,,,-99.99,,2013-02-10 18:52:00,
2013-02-10 13:02:00,66.0,54.0,29.62,WNW,284,6.0,-999.0,65,-99.99,,,-99.99,,2013-02-10 19:02:00,
2013-02-10 13:11:00,66.0,53.0,29.62,West,279,6.0,-999.0,62,-99.99,,,-99.99,,2013-02-10 19:11:00,
2013-02-10 13:22:00,66.0,53.0,29.62,West,279,6.0,-999.0,62,-99.99,,,-99.99,,2013-02-10 19:22:00,
2013-02-10 13:32:00,66.0,50.0,29.62,West,267,8.0,-999.0,57,-99.99,,,-99.99,,2013-02-10 19:32:00,
2013-02-10 13:42:00,67.0,48.0,29.62,West,275,8.0,-999.0,51,-99.99,,,-99.99,,2013-02-10 19:42:00,
2013-02-10 13:52:00,67.0,48.0,29.62,West,275,8.0,-999.0,51,-99.99,,,-99.99,,2013-02-10 19:52:00,
2013-02-10 14:02:00,67.0,44.0,29.62,SW,236,9.0,-999.0,43,-99.99,,,-99.99,,2013-02-10 20:02:00,
2013-02-10 14:11:00,67.0,44.0,29.62,SW,236,9.0,-999.0,43,-99.99,,,-99.99,,2013-02-10 20:11:00,
2013-02-10 14:22:00,67.0,38.0,29.62,West,265,10.0,-999.0,35,-99.99,,,-99.99,,2013-02-10 20:22:00,
2013-02-10 14:32:00,67.0,38.0,29.62,West,268,9.0,-999.0,34,-99.99,,,-99.99,,2013-02-10 20:32:00,
2013-02-10 14:42:00,67.0,35.0,29.62,SW,224,8.0,-999.0,31,-99.99,,,-99.99,,2013-02-10 20:42:00,
2013-02-10 14:52:00,67.0,35.0,29.62,SW,224,8.0,-999.0,31,-99.99,,,-99.99,,2013-02-10 20:52:00,
2013-02-10 15:02:00,68.0,37.0,29.62,WSW,254,7.0,-999.0,32,-99.99,,,-99.99,,2013-02-10 21:02:00,
2013-02-10 15:11:00,68.0,37.0,29.62,WSW,254,7.0,-999.0,32,-99.99,,,-99.99,,2013-02-10 21:11:00,
2013-02-10 15:21:00,67.0,34.0,29.63,WNW,295,7.0,-999.0,29,-99.99,,,-99.99,,2013-02-10 21:21:00,
2013-02-10 15:32:00,68.0,34.0,29.64,WSW,257,6.0,-999.0,28,-99.99,,,-99.99,,2013-02-10 21:32:00,
2013-02-10 15:42:00,67.0,33.0,29.65,West,280,8.0,-999.0,28,-99.99,,,-99.99,,2013-02-10 21:42:00,
2013-02-10 15:51:00,67.0,33.0,29.65,West,280,8.0,-999.0,28,-99.99,,,-99.99,,2013-02-10 21:51:00,
2013-02-10 16:02:00,67.0,34.0,29.65,WNW,291,6.0,-999.0,29,-99.99,,,-99.99,,2013-02-10 22:02:00,
2013-02-10 16:11:00,67.0,34.0,29.66,SW,219,5.0,-999.0,29,-99.99,,,-99.99,,2013-02-10 22:11:00,
2013-02-10 16:21:00,67.0,34.0,29.66,SW,219,5.0,-999.0,29,-99.99,,,-99.99,,2013-02-10 22:21:00,
2013-02-10 16:32:00,67.0,35.0,29.66,WSW,252,6.0,-999.0,31,-99.99,,,-99.99,,2013-02-10 22:32:00,
2013-02-10 16:42:00,67.0,35.0,29.66,WSW,252,6.0,-999.0,31,-99.99,,,-99.99,,2013-02-10 22:42:00,
2013-02-10 16:52:00,67.0,35.0,29.66,WSW,252,6.0,-999.0,31,-99.99,,,-99.99,,2013-02-10 22:52:00,
2013-02-10 17:02:00,66.0,35.0,29.69,SW,227,4.0,-999.0,32,-99.99,,,-99.99,,2013-02-10 23:02:00,
2013-02-10 17:11:00,66.0,35.0,29.69,SW,227,4.0,-999.0,32,-99.99,,,-99.99,,2013-02-10 23:11:00,
2013-02-10 17:22:00,65.0,36.0,29.69,WSW,254,2.0,-999.0,34,-99.99,,,-99.99,,2013-02-10 23:22:00,
2013-02-10 17:32:00,64.0,37.0,29.70,West,280,2.0,-999.0,36,-99.99,,,-99.99,,2013-02-10 23:32:00,
2013-02-10 17:42:00,63.0,33.0,29.71,WSW,242,4.0,-999.0,32,-99.99,,,-99.99,,2013-02-10 23:42:00,
2013-02-10 17:52:00,63.0,33.0,29.71,WSW,242,4.0,-999.0,32,-99.99,,,-99.99,,2013-02-10 23:52:00,
2013-02-10 18:02:00,62.0,33.0,29.72,WSW,257,2.0,-999.0,33,-99.99,,,-99.99,,2013-02-11 00:02:00,
2013-02-10 18:11:00,60.0,34.0,29.73,West,260,0.0,-999.0,37,-99.99,,,-99.99,,2013-02-11 00:11:00,
2013-02-10 18:22:00,60.0,34.0,29.73,West,260,0.0,-999.0,37,-99.99,,,-99.99,,2013-02-11 00:22:00,
2013-02-10 18:32:00,57.0,35.0,29.74,West,260,0.0,-999.0,43,-99.99,,,-99.99,,2013-02-11 00:32:00,
2013-02-10 18:42:00,54.0,37.0,29.75,West,260,0.0,-999.0,52,-99.99,,,-99.99,,2013-02-11 00:42:00,
2013-02-10 18:51:00,54.0,37.0,29.75,West,260,0.0,-999.0,52,-99.99,,,-99.99,,2013-02-11 00:51:00,
2013-02-10 19:01:00,51.0,36.0,29.77,West,260,0.0,-999.0,57,-99.99,,,-99.99,,2013-02-11 01:01:00,
2013-02-10 19:21:00,49.0,37.0,29.77,West,260,0.0,-999.0,64,-99.99,,,-99.99,,2013-02-11 01:21:00,
2013-02-10 19:32:00,46.0,36.0,29.78,West,260,0.0,-999.0,67,-99.99,,,-99.99,,2013-02-11 01:32:00,
2013-02-10 19:42:00,45.0,35.0,29.79,West,260,0.0,-999.0,69,-99.99,,,-99.99,,2013-02-11 01:42:00,
2013-02-10 19:52:00,45.0,35.0,29.79,West,260,0.0,-999.0,69,-99.99,,,-99.99,,2013-02-11 01:52:00,
2013-02-10 20:01:00,44.0,36.0,29.80,West,260,0.0,-999.0,74,-99.99,,,-99.99,,2013-02-11 02:01:00,
2013-02-10 20:21:00,43.0,36.0,29.81,West,260,0.0,-999.0,75,-99.99,,,-99.99,,2013-02-11 02:21:00,
2013-02-10 20:31:00,42.0,35.0,29.82,West,260,0.0,-999.0,77,-99.99,,,-99.99,,2013-02-11 02:31:00,
2013-02-10 20:42:00,41.0,34.0,29.83,West,260,0.0,-999.0,77,-99.99,,,-99.99,,2013-02-11 02:42:00,
2013-02-10 20:52:00,41.0,34.0,29.83,West,260,0.0,-999.0,77,-99.99,,,-99.99,,2013-02-11 02:52:00,
2013-02-10 21:02:00,40.0,34.0,29.83,West,260,0.0,-999.0,80,-99.99,,,-99.99,,2013-02-11 03:02:00,
2013-02-10 21:21:00,39.0,33.0,29.84,West,260,0.0,-999.0,78,-99.99,,,-99.99,,2013-02-11 03:21:00,
2013-02-10 21:31:00,39.0,33.0,29.84,West,260,0.0,-999.0,79,-99.99,,,-99.99,,2013-02-11 03:31:00,
2013-02-10 21:42:00,38.0,33.0,29.85,West,260,0.0,-999.0,81,-99.99,,,-99.99,,2013-02-11 03:42:00,
2013-02-10 21:52:00,38.0,33.0,29.85,West,260,0.0,-999.0,81,-99.99,,,-99.99,,2013-02-11 03:52:00,
2013-02-10 22:01:00,38.0,33.0,29.87,West,260,0.0,-999.0,83,-99.99,,,-99.99,,2013-02-11 04:01:00,
2013-02-10 22:21:00,37.0,32.0,29.88,West,260,0.0,-999.0,83,-99.99,,,-99.99,,2013-02-11 04:21:00,
2013-02-10 22:31:00,37.0,33.0,29.89,West,260,1.0,-999.0,84,-99.99,,,-99.99,,2013-02-11 04:31:00,
2013-02-10 22:51:00,37.0,32.0,29.92,West,260,0.0,-999.0,83,-99.99,,,-99.99,,2013-02-11 04:51:00,
2013-02-10 23:01:00,43.0,32.0,29.92,WNW,294,1.0,-999.0,66,-99.99,,,-99.99,,2013-02-11 05:01:00,
2013-02-10 23:11:00,50.0,32.0,29.93,WNW,285,6.0,-999.0,50,-99.99,,,-99.99,,2013-02-11 05:11:00,
2013-02-10 23:22:00,50.0,32.0,29.93,WNW,285,6.0,-999.0,50,-99.99,,,-99.99,,2013-02-11 05:22:00,
2013-02-10 23:31:00,50.0,30.0,29.95,WNW,292,9.0,-999.0,46,-99.99,,,-99.99,,2013-02-11 05:31:00,
2013-02-10 23:42:00,50.0,30.0,29.95,WNW,292,9.0,-999.0,46,-99.99,,,-99.99,,2013-02-11 05:42:00,
2013-02-10 23:52:00,49.0,30.0,29.96,WNW,286,7.0,-999.0,47,-99.99,,,-99.99,,2013-02-11 05:52:00,